This demonstration page uses our WeatherBlox Daily Observations layout. Learn more.

Left ArrowRight Arrow

36.17497, -115.13722

Hourly Observations for January 6, 2017

Temp ( °F °C ) Dew Point ( °F °C ) Humidity (%) Winds ( mph kmh ) Pressure ( in mb ) Visibility ( mi km ) Precip ( " mm )
12:53 am 00:53 Partly Cloudy 45 7.2 14 -10 29 29 NNW 18 30 30.03 1017 10 16 N/A
1:53 am 01:53 Clear 42 5.6 12 -11.1 29 29 NNW 20 31 30.07 1018 10 16 N/A
2:53 am 02:53 Clear 39 3.9 11 -11.7 31 31 NNE 8 13 30.11 1020 10 16 N/A
3:53 am 03:53 Clear 38 3.3 4 -15.6 24 24 NNW 20 31 30.14 1021 10 16 N/A
4:53 am 04:53 Clear 36 2.2 3 -16.1 25 25 NNW 17 28 30.17 1022 10 16 N/A
5:53 am 05:53 Clear 35 1.7 4 -15.6 27 27 N 15 24 30.22 1023 10 16 N/A
6:53 am 06:53 Sunny 34 1.1 4 -15.6 28 28 N 17 28 30.24 1024 10 16 N/A
7:53 am 07:53 Sunny 35 1.7 4 -15.6 27 27 N 16 26 30.26 1025 10 16 N/A
8:53 am 08:53 Sunny 36 2.2 6 -14.4 28 28 N 7 11 30.31 1026 10 16 N/A
9:53 am 09:53 Sunny 37 2.8 5 -15 26 26 ESE 12 19 30.33 1027 10 16 N/A
10:53 am 10:53 Sunny 38 3.3 5 -15 25 25 ESE 6 9 30.31 1026 10 16 N/A
11:53 am 11:53 Sunny 39 3.9 5 -15 24 24 S 5 7 30.29 1026 10 16 N/A
12:53 pm 12:53 Sunny 42 5.6 5 -15 21 21 N N/A 30.26 1025 10 16 N/A
1:53 pm 13:53 Sunny 43 6.1 4 -15.6 20 20 N N/A 30.25 1025 10 16 N/A
2:53 pm 14:53 Sunny 43 6.1 3 -16.1 19 19 N N/A 30.26 1025 10 16 N/A
3:53 pm 15:53 Sunny 44 6.7 3 -16.1 18 18 SSW 5 7 30.27 1025 10 16 N/A
4:53 pm 16:53 Clear 42 5.6 6 -14.4 22 22 SE 7 11 30.28 1026 10 16 N/A
5:53 pm 17:53 Clear 40 4.4 7 -13.9 25 25 SE 5 7 30.30 1026 10 16 N/A
6:53 pm 18:53 Clear 40 4.4 7 -13.9 25 25 S 5 7 30.32 1027 10 16 N/A
7:53 pm 19:53 Clear 39 3.9 9 -12.8 29 29 WSW 3 6 30.34 1027 10 16 N/A
8:53 pm 20:53 Clear 37 2.8 11 -11.7 34 34 W 3 6 30.35 1028 10 16 N/A
9:53 pm 21:53 Clear 36 2.2 12 -11.1 37 37 N N/A 30.35 1028 10 16 N/A
10:53 pm 22:53 Clear 36 2.2 14 -10 40 40 N N/A 30.35 1028 10 16 N/A
11:53 pm 23:53 Clear 34 1.1 15 -9.4 46 46 NNW 5 7 30.35 1028 10 16 N/A

Powered by AerisWeather